Notices

What's New in latest Release from April 7th, 2021:

- Updated Glossary, including Speed of Maximum Gust, and Total Hourly Precipitation

- Updated national and regional climate services offices contacts and prices information

- Addition of station inventory lists for 1981-2010, 1971-2000, and 1961-1990 Normals.

If you haven't already, please take our survey and provide feedback about our website: https://eccc.sondage-survey.ca/f/LanguageSelection.aspx?s=442ca660-fcf1-47c0-95a9-59707d6fd709

Hourly Data Report for March 10, 2017

MIRAMICHI RCS
NEW BRUNSWICK

47°00'34.000" N
65°27'54.000" W
33.00 m
8100989
71744
ACQ

Download Data

Hourly Data (March 2017)
Hourly Data Report for March 10, 2017
TIME
LST
Temp Definition
°C
Dew Point Definition
°C
Rel Hum Definition
%
Precip. Amount Definition
mm

Wind Dir Definition
10's deg

Wind Spd Definition
km/h
Visibility Definition
km
Stn Press Definition
kPa
Hmdx Definition


Wind Chill Definition


Weather Definition


00:00 -4.9 -12.7 55 0.0 28 26   100.01   -12 LegendNANA
01:00 -5.7 -12.3 60 0.0 29 21   100.10   -13 LegendNANA
02:00 -7.1 -10.7 76 0.0 30 17   100.16   -14 LegendNANA
03:00 -7.9 -16.1 52 0.0 29 29   100.20   -17 LegendNANA
04:00 -9.3 -18.0 49 0.0 30 27   100.23   -18 LegendNANA
05:00 -10.2 -18.6 50 0.0 29 29   100.24   -20 LegendNANA
06:00 -11.1 -18.7 53 0.0 28 24   100.27   -20 LegendNANA
07:00 -11.9 -19.2 54 0.2 27 19   100.31   -20 LegendNANA
08:00 -11.5 -19.9 50 0.0 27 17   100.36   -19 LegendNANA
09:00 -11.3 -19.7 50 0.0 28 24   100.40   -20 LegendNANA
10:00 -10.0 -19.3 47 0.0 27 26   100.40   -19 LegendNANA
11:00 -9.1 -18.6 46 0.0 27 22   100.35   -17 LegendNANA
12:00 -8.6 -18.9 43 0.0 26 30   100.30   -18 LegendNANA
13:00 -7.4 -18.7 40 0.0 27 24   100.23   -15 LegendNANA
14:00 -6.6 -19.4 35 0.0 30 22   100.15   -14 LegendNANA
15:00 -5.8 -19.2 34 0.0 28 21   100.13   -13 LegendNANA
16:00 -5.6 -20.1 31 0.0 30 17   100.16   -12 LegendNANA
17:00 -5.8 -21.9 27 0.0 30 14   100.13   -11 LegendNANA
18:00 -7.2 -21.7 31 0.0 31 12   100.13   -13 LegendNANA
19:00 -9.1 -21.6 36 0.0 31 10   100.21   -14 LegendNANA
20:00 -10.6 -20.9 43 0.0 33 11   100.24   -16 LegendNANA
21:00 -12.0 -20.9 48 0.0 33 12   100.29   -18 LegendNANA
22:00 -13.0 -20.9 51 0.0 32 12   100.25   -20 LegendNANA
23:00 -14.1 -21.5 54 0.0 32 12   100.13   -21 LegendNANA

Notes on Data Quality.

Legend

  • E = Estimated
  • M = Missing
  • NA = Not Available*
  • [empty] = Indicates an unobserved value
Date modified: